Year,Month,Day,Hour,Minute,Value (Times are PST for windspeed in km/hr)
2021,02,25,00,00,8.10
2021,02,25,00,01,7.50
2021,02,25,00,02,6.70
2021,02,25,00,03,8.40
2021,02,25,00,04,7.40
2021,02,25,00,05,5.40
2021,02,25,00,06,2.10
2021,02,25,00,07,13.00
2021,02,25,00,08,6.00
2021,02,25,00,09,3.90
2021,02,25,00,10,7.70
2021,02,25,00,11,7.40
2021,02,25,00,12,7.30
2021,02,25,00,13,9.70
2021,02,25,00,14,8.20
2021,02,25,00,15,10.70
2021,02,25,00,16,8.00
2021,02,25,00,17,6.30
2021,02,25,00,18,5.50
2021,02,25,00,19,5.50
2021,02,25,00,20,9.10
2021,02,25,00,21,5.80
2021,02,25,00,22,7.20
2021,02,25,00,23,8.10
2021,02,25,00,24,7.90
2021,02,25,00,25,11.20
2021,02,25,00,26,6.80
2021,02,25,00,27,4.30
2021,02,25,00,28,2.90
2021,02,25,00,29,4.00
2021,02,25,00,30,6.10
2021,02,25,00,31,4.20
2021,02,25,00,32,7.90
2021,02,25,00,33,6.30
2021,02,25,00,34,9.00
2021,02,25,00,35,6.50
2021,02,25,00,36,11.90
2021,02,25,00,37,7.90
2021,02,25,00,38,8.70
2021,02,25,00,39,7.50
2021,02,25,00,40,7.20
2021,02,25,00,41,6.10
2021,02,25,00,42,6.40
2021,02,25,00,43,4.30
2021,02,25,00,44,4.00
2021,02,25,00,45,5.10
2021,02,25,00,46,2.40
2021,02,25,00,47,1.00
2021,02,25,00,48,1.90
2021,02,25,00,49,1.00
2021,02,25,00,50,0.30
2021,02,25,00,51,0.10
2021,02,25,00,52,2.50
2021,02,25,00,53,0.80
2021,02,25,00,54,2.10
2021,02,25,00,55,3.00
2021,02,25,00,56,3.80
2021,02,25,00,57,6.00
2021,02,25,00,58,4.10
2021,02,25,00,59,4.00
2021,02,25,01,00,1.80
2021,02,25,01,01,0.30
2021,02,25,01,02,3.90
2021,02,25,01,03,3.80
2021,02,25,01,04,1.90
2021,02,25,01,05,2.40
2021,02,25,01,06,1.40
2021,02,25,01,07,1.40
2021,02,25,01,08,2.10
2021,02,25,01,09,2.10
2021,02,25,01,10,2.20
2021,02,25,01,11,5.20
2021,02,25,01,12,4.50
2021,02,25,01,13,0.60
2021,02,25,01,14,4.80
2021,02,25,01,15,6.10
2021,02,25,01,16,4.80
2021,02,25,01,17,3.00
2021,02,25,01,18,2.10
2021,02,25,01,19,3.70
2021,02,25,01,20,2.70
2021,02,25,01,21,1.60
2021,02,25,01,22,4.40
2021,02,25,01,23,11.60
2021,02,25,01,24,6.00
2021,02,25,01,25,3.60
2021,02,25,01,26,5.10
2021,02,25,01,27,0.90
2021,02,25,01,28,3.80
2021,02,25,01,29,5.40
2021,02,25,01,30,5.10
2021,02,25,01,31,5.30
2021,02,25,01,32,4.70
2021,02,25,01,33,6.00
2021,02,25,01,34,3.90
2021,02,25,01,35,3.50
2021,02,25,01,36,1.70
2021,02,25,01,37,4.00
2021,02,25,01,38,4.00
2021,02,25,01,39,2.90
2021,02,25,01,40,5.00
2021,02,25,01,41,2.90
2021,02,25,01,42,3.10
2021,02,25,01,43,2.80
2021,02,25,01,44,2.50
2021,02,25,01,45,3.80
2021,02,25,01,46,12.40
2021,02,25,01,47,17.50
2021,02,25,01,48,15.00
2021,02,25,01,49,7.20
2021,02,25,01,50,1.30
2021,02,25,01,51,1.80
2021,02,25,01,52,3.90
2021,02,25,01,53,5.60
2021,02,25,01,54,5.60
2021,02,25,01,55,3.90
2021,02,25,01,56,0.90
2021,02,25,01,57,2.20
2021,02,25,01,58,5.70
2021,02,25,01,59,5.10
2021,02,25,02,00,3.50
2021,02,25,02,01,3.10
2021,02,25,02,02,3.60
2021,02,25,02,03,6.00
2021,02,25,02,04,4.70
2021,02,25,02,05,1.60
2021,02,25,02,06,2.40
2021,02,25,02,07,3.10
2021,02,25,02,08,3.70
2021,02,25,02,09,3.60
2021,02,25,02,10,6.10
2021,02,25,02,11,9.20
2021,02,25,02,12,5.80
2021,02,25,02,13,3.70
2021,02,25,02,14,4.00
2021,02,25,02,15,4.30
2021,02,25,02,16,5.30
2021,02,25,02,17,4.40
2021,02,25,02,18,8.60
2021,02,25,02,19,10.80
2021,02,25,02,20,10.80
2021,02,25,02,21,13.50
2021,02,25,02,22,9.90
2021,02,25,02,23,5.30
2021,02,25,02,24,4.60
2021,02,25,02,25,4.10
2021,02,25,02,26,1.90
2021,02,25,02,27,2.20
2021,02,25,02,28,2.40
2021,02,25,02,29,3.60
2021,02,25,02,30,4.00
2021,02,25,02,31,4.90
2021,02,25,02,32,4.50
2021,02,25,02,33,2.60
2021,02,25,02,34,3.10
2021,02,25,02,35,2.20
2021,02,25,02,36,2.30
2021,02,25,02,37,4.00
2021,02,25,02,38,4.40
2021,02,25,02,39,4.10
2021,02,25,02,40,2.90
2021,02,25,02,41,4.20
2021,02,25,02,42,5.50
2021,02,25,02,43,4.10
2021,02,25,02,44,2.60
2021,02,25,02,45,3.50
2021,02,25,02,46,3.00
2021,02,25,02,47,4.10
2021,02,25,02,48,5.80
2021,02,25,02,49,5.80
2021,02,25,02,50,4.20
2021,02,25,02,51,3.00
2021,02,25,02,52,2.50
2021,02,25,02,53,3.10
2021,02,25,02,54,5.60
2021,02,25,02,55,5.20
2021,02,25,02,56,5.20
2021,02,25,02,57,4.80
2021,02,25,02,58,6.20
2021,02,25,02,59,4.70
2021,02,25,03,00,4.10
2021,02,25,03,01,3.70
2021,02,25,03,02,3.30
2021,02,25,03,03,1.50
2021,02,25,03,04,4.30
2021,02,25,03,05,4.80
2021,02,25,03,06,3.30
2021,02,25,03,07,2.90
2021,02,25,03,08,1.90
2021,02,25,03,09,3.90
2021,02,25,03,10,4.30
2021,02,25,03,11,4.00
2021,02,25,03,12,1.60
2021,02,25,03,13,2.60
2021,02,25,03,14,0.10
2021,02,25,03,15,0.00
2021,02,25,03,16,0.20
2021,02,25,03,17,0.20
2021,02,25,03,18,0.30
2021,02,25,03,19,1.10
2021,02,25,03,20,0.10
2021,02,25,03,21,0.00
2021,02,25,03,22,2.90
2021,02,25,03,23,2.30
2021,02,25,03,24,1.90
2021,02,25,03,25,2.20
2021,02,25,03,26,0.40
2021,02,25,03,27,3.10
2021,02,25,03,28,3.30
2021,02,25,03,29,2.90
2021,02,25,03,30,3.80
2021,02,25,03,31,4.30
2021,02,25,03,32,2.50
2021,02,25,03,33,3.00
2021,02,25,03,34,5.20
2021,02,25,03,35,3.00
2021,02,25,03,36,2.20
2021,02,25,03,37,2.90
2021,02,25,03,38,4.60
2021,02,25,03,39,5.20
2021,02,25,03,40,2.70
2021,02,25,03,41,0.30
2021,02,25,03,42,1.60
2021,02,25,03,43,0.30
2021,02,25,03,44,2.80
2021,02,25,03,45,2.90
2021,02,25,03,46,3.70
2021,02,25,03,47,3.00
2021,02,25,03,48,2.60
2021,02,25,03,49,3.00
2021,02,25,03,50,1.20
2021,02,25,03,51,1.60
2021,02,25,03,52,0.20
2021,02,25,03,53,1.10
2021,02,25,03,54,1.70
2021,02,25,03,55,1.50
2021,02,25,03,56,1.50
2021,02,25,03,57,1.60
2021,02,25,03,58,0.00
2021,02,25,03,59,0.00
2021,02,25,04,00,0.00
2021,02,25,04,01,0.10
2021,02,25,04,02,2.20
2021,02,25,04,03,1.70
2021,02,25,04,04,1.40
2021,02,25,04,05,0.00
2021,02,25,04,06,0.00
2021,02,25,04,07,0.00
2021,02,25,04,08,2.30
2021,02,25,04,09,2.20
2021,02,25,04,10,0.90
2021,02,25,04,11,2.90
2021,02,25,04,12,3.60
2021,02,25,04,13,4.60
2021,02,25,04,14,4.40
2021,02,25,04,15,5.00
2021,02,25,04,16,5.90
2021,02,25,04,17,5.10
2021,02,25,04,18,6.60
2021,02,25,04,19,6.50
2021,02,25,04,20,6.20
2021,02,25,04,21,5.80
2021,02,25,04,22,4.10
2021,02,25,04,23,4.70
2021,02,25,04,24,4.80
2021,02,25,04,25,10.60
2021,02,25,04,26,8.60
2021,02,25,04,27,10.60
2021,02,25,04,28,7.00
2021,02,25,04,29,7.10
2021,02,25,04,30,7.40
2021,02,25,04,31,10.40
2021,02,25,04,32,8.40
2021,02,25,04,33,5.20
2021,02,25,04,34,9.20
2021,02,25,04,35,7.90
2021,02,25,04,36,9.70
2021,02,25,04,37,10.10
2021,02,25,04,38,8.10
2021,02,25,04,39,9.00
2021,02,25,04,40,8.40
2021,02,25,04,41,7.40
2021,02,25,04,42,11.50
2021,02,25,04,43,14.30
2021,02,25,04,44,11.40
2021,02,25,04,45,11.30
2021,02,25,04,46,17.10
2021,02,25,04,47,14.90
2021,02,25,04,48,15.50
2021,02,25,04,49,10.90
2021,02,25,04,50,16.50
2021,02,25,04,51,13.80
2021,02,25,04,52,11.30
2021,02,25,04,53,11.60
2021,02,25,04,54,9.10
2021,02,25,04,55,8.20
2021,02,25,04,56,11.10
2021,02,25,04,57,12.20
2021,02,25,04,58,12.50
2021,02,25,04,59,13.00
2021,02,25,05,00,13.00
2021,02,25,05,01,7.90
2021,02,25,05,02,10.10
2021,02,25,05,03,8.70
2021,02,25,05,04,6.60
2021,02,25,05,05,9.70
2021,02,25,05,06,7.60
2021,02,25,05,07,7.20
2021,02,25,05,08,6.80
2021,02,25,05,09,6.70
2021,02,25,05,10,7.80
2021,02,25,05,11,7.20
2021,02,25,05,12,9.20
2021,02,25,05,13,7.50
2021,02,25,05,14,8.30
2021,02,25,05,15,7.50
2021,02,25,05,16,10.00
2021,02,25,05,17,9.10
2021,02,25,05,18,7.70
2021,02,25,05,19,8.10
2021,02,25,05,20,6.90
2021,02,25,05,21,8.80
2021,02,25,05,22,7.80
2021,02,25,05,23,8.10
2021,02,25,05,24,8.40
2021,02,25,05,25,9.20
2021,02,25,05,26,7.60
2021,02,25,05,27,6.00
2021,02,25,05,28,4.90
2021,02,25,05,29,6.10
2021,02,25,05,30,9.20
2021,02,25,05,31,5.40
2021,02,25,05,32,4.60
2021,02,25,05,33,6.80
2021,02,25,05,34,5.70
2021,02,25,05,35,5.70
2021,02,25,05,36,7.00
2021,02,25,05,37,8.60
2021,02,25,05,38,8.10
2021,02,25,05,39,5.30
2021,02,25,05,40,6.20
2021,02,25,05,41,7.90
2021,02,25,05,42,14.10
2021,02,25,05,43,6.60
2021,02,25,05,44,7.20
2021,02,25,05,45,7.50
2021,02,25,05,46,8.20
2021,02,25,05,47,10.60
2021,02,25,05,48,2.00
2021,02,25,05,49,3.80
2021,02,25,05,50,5.50
2021,02,25,05,51,4.30
2021,02,25,05,52,13.80
2021,02,25,05,53,7.30
2021,02,25,05,54,11.40
2021,02,25,05,55,10.40
2021,02,25,05,56,11.60
2021,02,25,05,57,8.50
2021,02,25,05,58,7.90
2021,02,25,05,59,8.20
2021,02,25,06,00,9.40
2021,02,25,06,01,6.90
2021,02,25,06,02,6.10
2021,02,25,06,03,5.70
2021,02,25,06,04,5.40
2021,02,25,06,05,6.30
2021,02,25,06,06,8.40
2021,02,25,06,07,8.70
2021,02,25,06,08,9.60
2021,02,25,06,09,7.90
2021,02,25,06,10,7.20
2021,02,25,06,11,6.60
2021,02,25,06,12,11.30
2021,02,25,06,13,15.00
2021,02,25,06,14,12.90
2021,02,25,06,15,14.90
2021,02,25,06,16,11.00
2021,02,25,06,17,10.50
2021,02,25,06,18,6.30
2021,02,25,06,19,5.00
2021,02,25,06,20,4.00
2021,02,25,06,21,1.50
2021,02,25,06,22,2.70
2021,02,25,06,23,6.00
2021,02,25,06,24,1.80
2021,02,25,06,25,5.00
2021,02,25,06,26,3.90
2021,02,25,06,27,4.00
2021,02,25,06,28,1.50
2021,02,25,06,29,0.30
2021,02,25,06,30,2.30
2021,02,25,06,31,4.00
2021,02,25,06,32,10.30
2021,02,25,06,33,7.30
2021,02,25,06,34,8.20
2021,02,25,06,35,8.70
2021,02,25,06,36,8.50
2021,02,25,06,37,8.20
2021,02,25,06,38,10.10
2021,02,25,06,39,7.60
2021,02,25,06,40,7.50
2021,02,25,06,41,11.40
2021,02,25,06,42,13.50
2021,02,25,06,43,9.30
2021,02,25,06,44,9.20
2021,02,25,06,45,6.80
2021,02,25,06,46,6.80
2021,02,25,06,47,6.40
2021,02,25,06,48,6.40
2021,02,25,06,49,6.40
2021,02,25,06,50,6.40
2021,02,25,06,51,6.40
2021,02,25,06,52,6.40
2021,02,25,06,53,6.40
2021,02,25,06,54,6.40
2021,02,25,06,55,6.40
2021,02,25,06,56,6.40
2021,02,25,07,46,6.80
2021,02,25,07,47,5.40
2021,02,25,07,48,8.20
2021,02,25,07,49,9.70
2021,02,25,07,50,10.60
2021,02,25,07,51,5.60
2021,02,25,07,52,5.60
2021,02,25,07,53,4.30
2021,02,25,07,54,4.20
2021,02,25,07,55,1.80
2021,02,25,07,56,0.20
2021,02,25,07,57,0.70
2021,02,25,07,58,0.00
2021,02,25,07,59,0.80
2021,02,25,08,00,0.60
2021,02,25,08,01,1.80
2021,02,25,08,02,2.60
2021,02,25,08,03,1.90
2021,02,25,08,04,3.10
2021,02,25,08,05,8.40
2021,02,25,08,06,4.00
2021,02,25,08,07,3.20
2021,02,25,08,08,11.40
2021,02,25,08,09,8.90
2021,02,25,08,10,6.00
2021,02,25,08,11,7.20
2021,02,25,08,12,4.40
2021,02,25,08,13,2.30
2021,02,25,08,14,0.00
2021,02,25,08,15,0.00
2021,02,25,08,16,0.00
2021,02,25,08,17,0.00
2021,02,25,08,18,0.00
2021,02,25,08,19,3.00
2021,02,25,08,20,0.30
2021,02,25,08,21,1.40
2021,02,25,08,22,2.90
2021,02,25,08,23,4.90
2021,02,25,08,24,3.60
2021,02,25,08,25,2.20
2021,02,25,08,26,2.20
2021,02,25,08,27,2.50
2021,02,25,08,28,4.00
2021,02,25,08,29,3.70
2021,02,25,08,30,5.10
2021,02,25,08,31,3.10
2021,02,25,08,32,0.20
2021,02,25,08,33,5.40
2021,02,25,08,34,5.60
2021,02,25,08,35,3.00
2021,02,25,08,36,4.70
2021,02,25,08,37,6.60
2021,02,25,08,38,8.80
2021,02,25,08,39,4.60
2021,02,25,08,40,10.80
2021,02,25,08,41,3.80
2021,02,25,08,42,5.20
2021,02,25,08,43,8.20
2021,02,25,08,44,10.40
2021,02,25,08,45,4.40
2021,02,25,08,46,8.60
2021,02,25,08,47,8.50
2021,02,25,08,48,9.10
2021,02,25,08,49,10.20
2021,02,25,08,50,7.70
2021,02,25,08,51,12.70
2021,02,25,08,52,15.80
2021,02,25,08,53,10.20
2021,02,25,08,54,15.00
2021,02,25,08,55,16.20
2021,02,25,08,56,16.70
2021,02,25,08,57,13.00
2021,02,25,08,58,14.10
2021,02,25,08,59,15.20
2021,02,25,09,00,19.70
2021,02,25,09,01,24.00
2021,02,25,09,02,24.20
2021,02,25,09,03,22.50
2021,02,25,09,04,15.70
2021,02,25,09,05,23.10
2021,02,25,09,06,20.90
2021,02,25,09,07,28.80
2021,02,25,09,08,27.70
2021,02,25,09,09,28.60
2021,02,25,09,10,21.60
2021,02,25,09,11,24.50
2021,02,25,09,12,21.00
2021,02,25,09,13,22.90
2021,02,25,09,14,17.70
2021,02,25,09,15,17.00
2021,02,25,09,16,17.60
2021,02,25,09,17,17.00
2021,02,25,09,18,21.20
2021,02,25,09,19,15.90
2021,02,25,09,20,15.00
2021,02,25,09,21,11.50
2021,02,25,09,22,10.50
2021,02,25,09,23,11.40
2021,02,25,09,24,12.10
2021,02,25,09,25,11.30
2021,02,25,09,26,12.90
2021,02,25,09,27,18.10
2021,02,25,09,28,9.40
2021,02,25,09,29,8.70
2021,02,25,09,30,9.30
2021,02,25,09,31,14.30
2021,02,25,09,32,11.60
2021,02,25,09,33,8.00
2021,02,25,09,34,9.40
2021,02,25,09,35,7.70
2021,02,25,09,36,6.40
2021,02,25,09,37,5.80
2021,02,25,09,38,5.40
2021,02,25,09,39,4.10
2021,02,25,09,40,4.90
2021,02,25,09,41,4.90
2021,02,25,09,42,3.30
2021,02,25,09,43,4.50
2021,02,25,09,44,4.70
2021,02,25,09,45,4.70
2021,02,25,09,46,4.50
2021,02,25,09,47,2.60
2021,02,25,09,48,4.30
2021,02,25,09,49,4.20
2021,02,25,09,50,4.60
2021,02,25,09,51,6.60
2021,02,25,09,52,6.90
2021,02,25,09,53,9.30
2021,02,25,09,54,3.90
2021,02,25,09,55,6.70
2021,02,25,09,56,6.40
2021,02,25,09,57,7.80
2021,02,25,09,58,12.20
2021,02,25,09,59,7.60
2021,02,25,10,00,7.90
2021,02,25,10,01,6.80
2021,02,25,10,02,5.30
2021,02,25,10,03,1.70
2021,02,25,10,04,1.30
2021,02,25,10,05,7.60
2021,02,25,10,06,7.20
2021,02,25,10,07,10.60
2021,02,25,10,08,7.70
2021,02,25,10,09,10.00
2021,02,25,10,10,7.60
2021,02,25,10,11,8.10
2021,02,25,10,12,11.90
2021,02,25,10,13,11.00
2021,02,25,10,14,15.40
2021,02,25,10,15,18.70
2021,02,25,10,16,19.50
2021,02,25,10,17,20.50
2021,02,25,10,18,21.10
2021,02,25,10,19,18.90
2021,02,25,10,20,26.30
2021,02,25,10,21,25.70
2021,02,25,10,22,24.90
2021,02,25,10,23,22.10
2021,02,25,10,24,21.30
2021,02,25,10,25,20.50
2021,02,25,10,26,26.00
2021,02,25,10,27,18.70
2021,02,25,10,28,20.30
2021,02,25,10,29,19.50
2021,02,25,10,30,21.00
2021,02,25,10,31,17.10
2021,02,25,10,32,14.20
2021,02,25,10,33,18.00
2021,02,25,10,34,20.40
2021,02,25,10,35,16.40
2021,02,25,10,36,18.40
2021,02,25,10,37,12.90
2021,02,25,10,38,13.20
2021,02,25,10,39,15.80
2021,02,25,10,40,17.50
2021,02,25,10,41,17.10
2021,02,25,10,42,18.60
2021,02,25,10,43,17.10
2021,02,25,10,44,16.90
2021,02,25,10,45,12.20
2021,02,25,10,46,18.10
2021,02,25,10,47,15.80
2021,02,25,10,48,19.20
2021,02,25,10,49,17.70
2021,02,25,10,50,16.70
2021,02,25,10,51,14.20
2021,02,25,10,52,12.80
2021,02,25,10,53,13.00
2021,02,25,10,54,8.70
2021,02,25,10,55,7.20
2021,02,25,10,56,11.40
2021,02,25,10,57,11.00
2021,02,25,10,58,16.90
2021,02,25,10,59,14.20
2021,02,25,11,00,12.60
2021,02,25,11,01,11.30
2021,02,25,11,02,17.10
2021,02,25,11,03,19.50
2021,02,25,11,04,23.00
2021,02,25,11,05,22.40
2021,02,25,11,06,19.70
2021,02,25,11,07,20.40
2021,02,25,11,08,14.70
2021,02,25,11,09,11.90
2021,02,25,11,10,24.30
2021,02,25,11,11,27.10
2021,02,25,11,12,21.80
2021,02,25,11,13,23.10
2021,02,25,11,14,21.50
2021,02,25,11,15,22.30
2021,02,25,11,16,18.70
2021,02,25,11,17,27.60
2021,02,25,11,18,19.50
2021,02,25,11,19,24.50
2021,02,25,11,20,26.90
2021,02,25,11,21,26.00
2021,02,25,11,22,30.60
2021,02,25,11,23,32.80
2021,02,25,11,24,25.30
2021,02,25,11,25,23.90
2021,02,25,11,26,30.20
2021,02,25,11,27,23.70
2021,02,25,11,28,18.00
2021,02,25,11,29,25.30
2021,02,25,11,30,28.30
2021,02,25,11,31,29.20
2021,02,25,11,32,29.10
2021,02,25,11,33,32.80
2021,02,25,11,34,28.00
2021,02,25,11,35,17.40
2021,02,25,11,36,28.80
2021,02,25,11,37,17.50
2021,02,25,11,38,29.90
2021,02,25,11,39,28.10
2021,02,25,11,40,34.50
2021,02,25,11,41,31.80
2021,02,25,11,42,25.00
2021,02,25,11,43,24.70
2021,02,25,11,44,20.80
2021,02,25,11,45,19.60
2021,02,25,11,46,17.40
2021,02,25,11,47,21.40
2021,02,25,11,48,27.70
2021,02,25,11,49,24.80
2021,02,25,11,50,24.60
2021,02,25,11,51,22.50
2021,02,25,11,52,24.80
2021,02,25,11,53,25.50
2021,02,25,11,54,28.00
2021,02,25,11,55,23.80
2021,02,25,11,56,21.60
2021,02,25,11,57,20.70
2021,02,25,11,58,24.90
2021,02,25,11,59,18.00
2021,02,25,12,00,17.00
2021,02,25,12,01,11.80
2021,02,25,12,02,21.20
2021,02,25,12,03,21.90
2021,02,25,12,04,17.90
2021,02,25,12,05,19.60
2021,02,25,12,06,18.10
2021,02,25,12,07,21.40
2021,02,25,12,08,16.10
2021,02,25,12,09,15.90
2021,02,25,12,10,18.60
2021,02,25,12,11,18.30
2021,02,25,12,12,24.20
2021,02,25,12,13,27.00
2021,02,25,12,14,16.20
2021,02,25,12,15,22.40
2021,02,25,12,16,19.20
2021,02,25,12,17,22.50
2021,02,25,12,18,17.50
2021,02,25,12,19,21.20
2021,02,25,12,20,32.50
2021,02,25,12,21,28.80
2021,02,25,12,22,21.60
2021,02,25,12,23,23.30
2021,02,25,12,24,18.50
2021,02,25,12,25,24.50
2021,02,25,12,26,20.00
2021,02,25,12,27,20.00
2021,02,25,12,28,18.70
2021,02,25,12,29,15.60
2021,02,25,12,30,13.20
2021,02,25,12,31,15.50
2021,02,25,12,32,21.30
2021,02,25,12,33,19.50
2021,02,25,12,34,18.30
2021,02,25,12,35,17.40
2021,02,25,12,36,14.80
2021,02,25,12,37,15.40
2021,02,25,12,38,22.80
2021,02,25,12,39,18.70
2021,02,25,12,40,19.50
2021,02,25,12,41,19.20
2021,02,25,12,42,20.50
2021,02,25,12,43,16.30
2021,02,25,12,44,16.50
2021,02,25,12,45,10.20
2021,02,25,12,46,16.30
2021,02,25,12,47,14.30
2021,02,25,12,48,19.60
2021,02,25,12,49,16.90
2021,02,25,12,50,14.60
2021,02,25,12,51,13.30
2021,02,25,12,52,15.40
2021,02,25,12,53,21.10
2021,02,25,12,54,23.90
2021,02,25,12,55,18.80
2021,02,25,12,56,19.90
2021,02,25,12,57,15.50
2021,02,25,12,58,24.70
2021,02,25,12,59,20.40
2021,02,25,13,00,18.90
2021,02,25,13,01,19.50
2021,02,25,13,02,12.30
2021,02,25,13,03,21.40
2021,02,25,13,04,20.60
2021,02,25,13,05,22.90
2021,02,25,13,06,20.00
2021,02,25,13,07,15.40
2021,02,25,13,08,19.20
2021,02,25,13,09,24.70
2021,02,25,13,10,22.00
2021,02,25,13,11,18.80
2021,02,25,13,12,9.60
2021,02,25,13,13,15.90
2021,02,25,13,14,14.50
2021,02,25,13,15,23.10
2021,02,25,13,16,11.80
2021,02,25,13,17,18.00
2021,02,25,13,18,12.00
2021,02,25,13,19,16.90
2021,02,25,13,20,16.60
2021,02,25,13,21,15.70
2021,02,25,13,22,12.40
2021,02,25,13,23,15.90
2021,02,25,13,24,17.30
2021,02,25,13,25,13.50
2021,02,25,13,26,15.90
2021,02,25,13,27,23.80
2021,02,25,13,28,27.40
2021,02,25,13,29,28.50
2021,02,25,13,30,25.80
2021,02,25,13,31,23.00
2021,02,25,13,32,23.20
2021,02,25,13,33,25.40
2021,02,25,13,34,22.10
2021,02,25,13,35,21.30
2021,02,25,13,36,23.40
2021,02,25,13,37,22.30
2021,02,25,13,38,23.40
2021,02,25,13,39,26.80
2021,02,25,13,40,27.50
2021,02,25,13,41,25.90
2021,02,25,13,42,25.70
2021,02,25,13,43,19.80
2021,02,25,13,44,18.10
2021,02,25,13,45,20.40
2021,02,25,13,46,16.70
2021,02,25,13,47,15.70
2021,02,25,13,48,28.20
2021,02,25,13,49,28.20
2021,02,25,13,50,30.70
2021,02,25,13,51,26.60
2021,02,25,13,52,19.10
2021,02,25,13,53,30.00
2021,02,25,13,54,29.50
2021,02,25,13,55,29.10
2021,02,25,13,56,22.10
2021,02,25,13,57,25.20
2021,02,25,13,58,26.10
2021,02,25,13,59,26.40
2021,02,25,14,00,23.80
2021,02,25,14,01,20.70
2021,02,25,14,02,19.90
2021,02,25,14,03,22.00
2021,02,25,14,04,15.30
2021,02,25,14,05,16.90
2021,02,25,14,06,18.00
2021,02,25,14,07,17.90
2021,02,25,14,08,20.50
2021,02,25,14,09,32.70
2021,02,25,14,10,27.40
2021,02,25,14,11,25.80
2021,02,25,14,12,25.50
2021,02,25,14,13,25.90
2021,02,25,14,14,24.10
2021,02,25,14,15,25.40
2021,02,25,14,16,20.80
2021,02,25,14,17,23.40
2021,02,25,14,18,21.90
2021,02,25,14,19,18.10
2021,02,25,14,20,18.20
2021,02,25,14,21,21.20
2021,02,25,14,22,17.90
2021,02,25,14,23,16.00
2021,02,25,14,24,15.70
2021,02,25,14,25,18.40
2021,02,25,14,26,18.30
2021,02,25,14,27,17.40
2021,02,25,14,28,17.80
2021,02,25,14,29,17.10
2021,02,25,14,30,12.50
2021,02,25,14,31,16.50
2021,02,25,14,32,18.30
2021,02,25,14,33,16.70
2021,02,25,14,34,14.90
2021,02,25,14,35,12.90
2021,02,25,14,36,15.10
2021,02,25,14,37,11.80
2021,02,25,14,38,11.10
2021,02,25,14,39,14.20
2021,02,25,14,40,13.50
2021,02,25,14,41,8.50
2021,02,25,14,42,13.50
2021,02,25,14,43,9.80
2021,02,25,14,44,13.40
2021,02,25,14,45,11.70
2021,02,25,14,46,12.60
2021,02,25,14,47,14.10
2021,02,25,14,48,20.20
2021,02,25,14,49,16.30
2021,02,25,14,50,11.40
2021,02,25,14,51,18.30
2021,02,25,14,52,17.90
2021,02,25,14,53,19.00
2021,02,25,14,54,15.20
2021,02,25,14,55,17.70
2021,02,25,14,56,18.00
2021,02,25,14,57,19.60
2021,02,25,14,58,21.20
2021,02,25,14,59,19.70
2021,02,25,15,00,18.30
2021,02,25,15,01,15.50
2021,02,25,15,02,15.90
2021,02,25,15,03,16.90
2021,02,25,15,04,18.10
2021,02,25,15,05,21.70
2021,02,25,15,06,22.00
2021,02,25,15,07,20.20
2021,02,25,15,08,18.40
2021,02,25,15,09,16.60
2021,02,25,15,10,14.10
2021,02,25,15,11,18.10
2021,02,25,15,12,17.90
2021,02,25,15,13,23.80
2021,02,25,15,14,24.70
2021,02,25,15,15,18.60
2021,02,25,15,16,19.20
2021,02,25,15,17,20.40
2021,02,25,15,18,19.60
2021,02,25,15,19,23.00
2021,02,25,15,20,19.50
2021,02,25,15,21,22.30
2021,02,25,15,22,20.90
2021,02,25,15,23,20.40
2021,02,25,15,24,19.10
2021,02,25,15,25,12.60
2021,02,25,15,26,21.50
2021,02,25,15,27,15.80
2021,02,25,15,28,15.20
2021,02,25,15,29,15.30
2021,02,25,15,30,20.90
2021,02,25,15,31,14.60
2021,02,25,15,32,20.30
2021,02,25,15,33,18.70
2021,02,25,15,34,21.10
2021,02,25,15,35,23.70
2021,02,25,15,36,22.80
2021,02,25,15,37,18.30
2021,02,25,15,38,16.00
2021,02,25,15,39,21.00
2021,02,25,15,40,15.00
2021,02,25,15,41,17.70
2021,02,25,15,42,18.80
2021,02,25,15,43,16.60
2021,02,25,15,44,23.50
2021,02,25,15,45,25.70
2021,02,25,15,46,21.60
2021,02,25,15,47,25.50
2021,02,25,15,48,17.90
2021,02,25,15,49,16.10
2021,02,25,15,50,9.30
2021,02,25,15,51,13.90
2021,02,25,15,52,14.20
2021,02,25,15,53,18.10
2021,02,25,15,54,15.20
2021,02,25,15,55,14.40
2021,02,25,15,56,12.90
2021,02,25,15,57,8.80
2021,02,25,15,58,12.80
2021,02,25,15,59,13.70
2021,02,25,16,00,12.50
2021,02,25,16,01,12.50
2021,02,25,16,02,15.50
2021,02,25,16,03,15.80
2021,02,25,16,04,12.00
2021,02,25,16,05,16.10
2021,02,25,16,06,13.90
2021,02,25,16,07,13.40
2021,02,25,16,08,9.20
2021,02,25,16,09,11.90
2021,02,25,16,10,13.00
2021,02,25,16,11,14.10
2021,02,25,16,12,10.70
2021,02,25,16,13,10.00
2021,02,25,16,14,11.10
2021,02,25,16,15,16.20
2021,02,25,16,16,24.30
2021,02,25,16,17,14.80
2021,02,25,16,18,15.00
2021,02,25,16,19,15.00
2021,02,25,16,20,16.20
2021,02,25,16,21,17.10
2021,02,25,16,22,17.40
2021,02,25,16,23,15.40
2021,02,25,16,24,13.60
2021,02,25,16,25,16.00
2021,02,25,16,26,15.80
2021,02,25,16,27,17.40
2021,02,25,16,28,23.50
2021,02,25,16,29,19.40
2021,02,25,16,30,18.70
2021,02,25,16,31,15.80
2021,02,25,16,32,12.20
2021,02,25,16,33,16.70
2021,02,25,16,34,19.60
2021,02,25,16,35,18.60
2021,02,25,16,36,15.30
2021,02,25,16,37,19.70
2021,02,25,16,38,13.40
2021,02,25,16,39,15.20
2021,02,25,16,40,16.50
2021,02,25,16,41,19.60
2021,02,25,16,42,20.80
2021,02,25,16,43,20.60
2021,02,25,16,44,19.70
2021,02,25,16,45,24.80
2021,02,25,16,46,21.90
2021,02,25,16,47,19.40
2021,02,25,16,48,22.00
2021,02,25,16,49,23.10
2021,02,25,16,50,19.80
2021,02,25,16,51,19.40
2021,02,25,16,52,19.10
2021,02,25,16,53,21.30
2021,02,25,16,54,18.60
2021,02,25,16,55,16.60
2021,02,25,16,56,16.90
2021,02,25,16,57,15.50
2021,02,25,16,58,16.20
2021,02,25,16,59,14.20
2021,02,25,17,00,20.10
2021,02,25,17,01,20.00
2021,02,25,17,02,21.50
2021,02,25,17,03,22.30
2021,02,25,17,04,21.10
2021,02,25,17,05,23.70
2021,02,25,17,06,23.10
2021,02,25,17,07,22.30
2021,02,25,17,08,19.20
2021,02,25,17,09,14.90
2021,02,25,17,10,23.10
2021,02,25,17,11,20.80
2021,02,25,17,12,16.90
2021,02,25,17,13,14.20
2021,02,25,17,14,15.30
2021,02,25,17,15,12.90
2021,02,25,17,16,14.10
2021,02,25,17,17,13.40
2021,02,25,17,18,13.70
2021,02,25,17,19,13.70
2021,02,25,17,20,11.00
2021,02,25,17,21,17.90
2021,02,25,17,22,17.30
2021,02,25,17,23,12.10
2021,02,25,17,24,14.20
2021,02,25,17,25,17.40
2021,02,25,17,26,15.40
2021,02,25,17,27,18.30
2021,02,25,17,28,16.10
2021,02,25,17,29,17.00
2021,02,25,17,30,10.20
2021,02,25,17,31,10.60
2021,02,25,17,32,7.90
2021,02,25,17,33,9.00
2021,02,25,17,34,11.30
2021,02,25,17,35,8.80
2021,02,25,17,36,8.10
2021,02,25,17,37,5.00
2021,02,25,17,38,6.20
2021,02,25,17,39,5.70
2021,02,25,17,40,10.10
2021,02,25,17,41,10.90
2021,02,25,17,42,6.80
2021,02,25,17,43,5.60
2021,02,25,17,44,6.80
2021,02,25,17,45,7.60
2021,02,25,17,46,7.00
2021,02,25,17,47,8.50
2021,02,25,17,48,15.10
2021,02,25,17,49,13.40
2021,02,25,17,50,11.70
2021,02,25,17,51,13.00
2021,02,25,17,52,18.90
2021,02,25,17,53,20.80
2021,02,25,17,54,16.40
2021,02,25,17,55,15.00
2021,02,25,17,56,19.80
2021,02,25,17,57,15.50
2021,02,25,17,58,16.00
2021,02,25,17,59,18.70
2021,02,25,18,00,14.10
2021,02,25,18,01,10.30
2021,02,25,18,02,15.60
2021,02,25,18,03,8.70
2021,02,25,18,04,11.30
2021,02,25,18,05,14.20
2021,02,25,18,06,14.10
2021,02,25,18,07,16.40
2021,02,25,18,08,21.20
2021,02,25,18,09,18.50
2021,02,25,18,10,13.70
2021,02,25,18,11,12.60
2021,02,25,18,12,10.10
2021,02,25,18,13,8.60
2021,02,25,18,14,8.00
2021,02,25,18,15,10.80
2021,02,25,18,16,13.70
2021,02,25,18,17,11.00
2021,02,25,18,18,9.90
2021,02,25,18,19,12.20
2021,02,25,18,20,7.90
2021,02,25,18,21,14.10
2021,02,25,18,22,10.30
2021,02,25,18,23,8.50
2021,02,25,18,24,12.30
2021,02,25,18,25,14.10
2021,02,25,18,26,12.20
2021,02,25,18,27,9.70
2021,02,25,18,28,10.20
2021,02,25,18,29,13.00